Terug naar catalogus

TITAN 4B CENTAUR R/B

ActiefMEO
NORAD 25349·ROCKET BODY·🇺🇸 United States

Gelanceerd Apr 24, 1996 vanaf Cape Canaveral Space Force Station

Loading…

Volgende Passages (komende 24 uur)

TLE

VersSource: Space-Track

Epoch: Sep 14, 2026, 09:41 UTC

1 25349U 96026B   26257.40416414  .00000026  00000-0  00000+0 0  9999
2 25349   6.8359 350.6583 0445405  39.6114 323.5501  0.99564416 26520

Volg TITAN 4B CENTAUR R/B in realtime met AllMySat

Download on the App Store